Terug naar catalogus

DELTA 1 DEB

LostLEO
NORAD 40772·DEBRIS·🇺🇸 United States

Gelanceerd Jul 29, 1976 vanaf Vandenberg Space Force Base

Loading…

Volgende Passages (komende 24 uur)

TLE

VerouderdSource: Space-Track

Epoch: Mar 17, 2026, 02:33 UTC

1 40772U 76077GR  26076.10674494  .00000217  00000-0  28629-2 0  9992
2 40772 102.2614  28.4099 0187007 214.4287 144.4520 12.04975778500938

Volg DELTA 1 DEB in realtime met AllMySat

Download on the App Store